Andalusia, AL

3:35 AM CDT on March 26, 2017 (GMT -0500)
Andalusia

Weather History for K79J - April, 2014

Change the Weather History Date:

Friday, April 11, 2014

  Actual Average (KCEW) Record (KCEW)
Temperature  
Mean Temperature 64 °F -  
Max Temperature 80 °F 79 °F 90 °F (1999)
Min Temperature 48 °F 52 °F 39 °F (1982)
Degree Days  
Heating Degree Days 1    
Growing Degree Days 14 (Base 50)    
Moisture  
Dew Point 51 °F    
Average Humidity 63    
Maximum Humidity 86    
Minimum Humidity 38    
Precipitation  
Precipitation 0.00 in - - ()
Sea Level Pressure  
Sea Level Pressure 30.20 in    
Wind  
Wind Speed 2 mph (WSW)    
Max Wind Speed 9 mph    
Max Gust Speed -    
Visibility 9 miles    
Events      
Averages and records for this station are not official NWS values.
T = Trace of Precipitation, MM = Missing Value Source: NWS Daily Summary

Daily Weather History Graph

Daily Weather History Graph

Search for Another Location

Airport or City:

Trip Planner

Search our weather history database for the weather conditions in past years. The results will help you decide how hot, cold, wet, or windy it might be!

Date:

Astronomy

Apr. 11, 2014 Rise Set
Actual Time 6:22 AM CDT 7:11 PM CDT
Civil Twilight 5:57 AM CDT 7:36 PM CDT
Nautical Twilight 5:28 AM CDT 8:05 PM CDT
Astronomical Twilight 4:58 AM CDT 8:35 PM CDT
Moon 4:03 PM CDT (4/11) 4:03 AM CDT (4/11)
Length of Visible Light 13h 38m
Length of Day
12h 49m
Waxing Gibbous, 87% of the Moon is Illuminated
Apr 11
Waxing Gibbous
Apr 15
Full
Apr 22
Last Quarter
Apr 29
New
May 6
First Quarter

Hourly Weather History & Observations

Time (CDT) Temp. Heat Index Dew Point Humidity Pressure Visibility Wind Dir Wind Speed Gust Speed Precip Events Conditions
12:56 AM 52.0 °F - 46.9 °F 83% 30.22 in 10.0 mi Calm Calm - N/A   Clear
1:56 AM 52.0 °F - 46.9 °F 83% 30.21 in 10.0 mi Calm Calm - N/A   Clear
2:56 AM 51.1 °F - 46.0 °F 83% 30.19 in 9.0 mi Calm Calm - N/A   Clear
3:56 AM 51.1 °F - 46.9 °F 86% 30.18 in 7.0 mi Calm Calm - N/A   Clear
4:56 AM 50.0 °F - 46.0 °F 86% 30.19 in 5.0 mi Calm Calm - N/A   Clear
5:56 AM 48.9 °F - 45.0 °F 86% 30.21 in 6.0 mi Calm Calm - N/A   Clear
6:56 AM 51.1 °F - 46.0 °F 83% 30.24 in 4.0 mi Calm Calm - N/A   Haze
7:56 AM 57.9 °F - 53.1 °F 84% 30.25 in 6.0 mi Calm Calm - N/A   Haze
8:56 AM 64.9 °F - 57.0 °F 75% 30.26 in 9.0 mi Calm Calm - N/A   Clear
9:56 AM 72.0 °F - 55.0 °F 55% 30.27 in 10.0 mi Calm Calm - N/A   Partly Cloudy
10:25 AM 71.6 °F - 53.6 °F 53% 30.27 in 10.0 mi West 9.2 mph - N/A   Mostly Cloudy
10:33 AM 71.6 °F - 53.6 °F 53% 30.27 in 10.0 mi WNW 4.6 mph - N/A   Mostly Cloudy
10:56 AM 73.0 °F - 54.0 °F 51% 30.26 in 10.0 mi Variable 6.9 mph - N/A   Mostly Cloudy
11:56 AM 73.9 °F - 53.1 °F 48% 30.24 in 10.0 mi Variable 4.6 mph - N/A   Mostly Cloudy
12:56 PM 75.9 °F - 52.0 °F 43% 30.22 in 10.0 mi SW 4.6 mph - N/A   Scattered Clouds
1:56 PM 78.1 °F - 51.1 °F 39% 30.19 in 10.0 mi NW 6.9 mph - N/A   Partly Cloudy
2:56 PM 80.1 °F - 52.0 °F 38% 30.16 in 10.0 mi WNW 6.9 mph - N/A   Scattered Clouds
3:56 PM 78.1 °F - 53.1 °F 42% 30.14 in 10.0 mi SW 3.5 mph - N/A   Mostly Cloudy
4:56 PM 80.1 °F 79.9 °F 53.1 °F 39% 30.13 in 10.0 mi Variable 5.8 mph - N/A   Overcast
5:56 PM 79.0 °F - 52.0 °F 39% 30.12 in 10.0 mi SW 5.8 mph - N/A   Clear
6:56 PM 75.0 °F - 54.0 °F 48% 30.13 in 10.0 mi SW 3.5 mph - N/A   Clear
7:56 PM 71.1 °F - 55.0 °F 57% 30.14 in 10.0 mi SSW 3.5 mph - N/A   Clear
8:56 PM 68.0 °F - 53.1 °F 59% 30.16 in 10.0 mi SW 3.5 mph - N/A   Clear
9:56 PM 64.9 °F - 53.1 °F 65% 30.17 in 10.0 mi Calm Calm - N/A   Clear
10:56 PM 60.1 °F - 53.1 °F 78% 30.17 in 10.0 mi Calm Calm - N/A   Clear
11:56 PM 57.9 °F - 53.1 °F 84% 30.17 in 10.0 mi Calm Calm - N/A   Clear